GW3780 Weather Reports


Display with metric or nautical units.
time (UTC)temp
F
wind
direction
speed
MPH
gust
MPH
rain 1hr
in
rain 24hr
in
rain mn
in
humidity
%
barometer
mb
20260901145832 86 269 0.0 3.0 0.00 0.00 0.00 77 1019.6
20260901145327 86 89 0.0 2.0 0.00 0.00 0.00 76 1019.5
20260901144822 86 315 0.0 2.0 0.00 0.00 0.00 76 1019.7
20260901144318 86 254 0.0 1.0 0.00 0.00 0.00 76 1019.6
20260901143814 85 356 2.0 2.0 0.00 0.00 0.00 77 1019.5
20260901143310 85 180 0.0 2.0 0.00 0.00 0.00 77 1019.4
20260901142806 85 299 0.0 1.0 0.00 0.00 0.00 78 1019.5
20260901142306 84 178 0.0 2.0 0.00 0.00 0.00 78 1019.5
20260901141800 85 217 0.0 1.0 0.00 0.00 0.00 78 1019.4
20260901141255 84 147 0.0 2.0 0.00 0.00 0.00 79 1019.5
20260901140754 84 315 0.0 3.0 0.00 0.00 0.00 79 1019.4
20260901140252 84 297 0.0 0.0 0.00 0.00 0.00 81 1019.4
20260901135747 84 160 1.0 2.0 0.00 0.00 0.00 81 1019.6
20260901135242 83 59 0.0 1.0 0.00 0.00 0.00 82 1019.4
20260901134738 83 301 1.0 2.0 0.00 0.00 0.00 83 1019.5
20260901134237 82 317 1.0 1.0 0.00 0.00 0.00 84 1019.4
20260901133736 82 212 0.0 2.0 0.00 0.00 0.00 84 1019.3
20260901133231 82 304 0.0 1.0 0.00 0.00 0.00 84 1019.5
20260901132729 81 295 1.0 1.0 0.00 0.00 0.00 85 1019.4
20260901132225 81 311 0.0 2.0 0.00 0.00 0.00 85 1019.6
20260901131719 81 307 0.0 2.0 0.00 0.00 0.00 86 1019.6
20260901131219 81 309 0.0 1.0 0.00 0.00 0.00 86 1019.5
20260901130714 81 154 0.0 1.0 0.00 0.00 0.00 85 1019.6
20260901130212 82 324 0.0 0.0 0.00 0.00 0.00 85 1019.7
20260901125711 82 263 0.0 2.0 0.00 0.00 0.00 84 1019.7
20260901125206 82 269 0.0 1.0 0.00 0.00 0.00 85 1019.6
20260901124700 81 310 0.0 1.0 0.00 0.00 0.00 86 1019.5
20260901124155 80 333 0.0 1.0 0.00 0.00 0.00 89 1019.4
20260901123650 78 284 0.0 1.0 0.00 0.00 0.00 91 1019.6
20260901123149 78 281 0.0 0.0 0.00 0.00 0.00 92 1019.7
20260901122648 77 320 0.0 1.0 0.00 0.00 0.00 93 1019.7
20260901122143 77 193 0.0 2.0 0.00 0.00 0.00 94 1019.6
20260901121637 76 325 0.0 1.0 0.00 0.00 0.00 96 1019.4
20260901121132 75 315 0.0 1.0 0.00 0.00 0.00 97 1019.4
20260901120627 75 309 0.0 0.0 0.00 0.00 0.00 97 1019.6
20260901120122 75 333 0.0 0.0 0.00 0.00 0.00 98 1019.9
20260901115617 75 337 0.0 0.0 0.00 0.00 0.00 98 1019.7
20260901115114 74 15 0.0 1.0 0.00 0.00 0.00 98 1019.5
20260901114610 74 325 0.0 1.0 0.00 0.00 0.00 98 1019.5
20260901114108 74 333 0.0 0.0 0.00 0.00 0.00 98 1019.7
20260901113602 74 333 0.0 1.0 0.00 0.00 0.00 98 1019.6
20260901113058 74 340 1.0 1.0 0.00 0.00 0.00 98 1019.5
20260901112557 74 339 0.0 1.0 0.00 0.00 0.00 98 1019.1
20260901112052 74 0 0.0 1.0 0.00 0.00 0.00 98 1019.3
20260901111551 74 322 0.0 0.0 0.00 0.00 0.00 98 1019.2
20260901111049 74 202 0.0 1.0 0.00 0.00 0.00 98 1019.2
20260901110545 73 320 0.0 0.0 0.00 0.00 0.00 98 1019.1
20260901110041 74 336 0.0 0.0 0.00 0.00 0.00 97 1019.2
20260901105537 74 205 0.0 1.0 0.00 0.00 0.00 97 1019.1
20260901105036 74 301 1.0 1.0 0.00 0.00 0.00 97 1019.1
20260901104532 74 273 1.0 1.0 0.00 0.00 0.00 97 1018.9
20260901104027 74 222 1.0 1.0 0.00 0.00 0.00 97 1018.9
20260901103522 74 282 0.0 1.0 0.00 0.00 0.00 97 1018.9
20260901103018 74 253 0.0 2.0 0.00 0.00 0.00 97 1019.0
20260901102518 74 205 0.0 2.0 0.00 0.00 0.00 97 1018.8
20260901102012 74 233 1.0 2.0 0.00 0.00 0.00 97 1018.9
20260901101508 74 195 0.0 1.0 0.00 0.00 0.00 97 1018.8
20260901101002 74 221 0.0 1.0 0.00 0.00 0.00 97 1018.9
20260901100502 74 269 0.0 1.0 0.00 0.00 0.00 97 1019.0
20260901100000 74 336 0.0 1.0 0.00 0.00 0.00 97 1019.3
20260901095459 74 319 0.0 1.0 0.00 0.00 0.00 97 1019.3
20260901094957 74 172 0.0 0.0 0.00 0.00 0.00 97 1019.1
20260901094452 74 315 0.0 1.0 0.00 0.00 0.00 97 1019.0
20260901093947 74 349 0.0 1.0 0.00 0.00 0.00 98 1019.1
20260901093441 74 297 0.0 1.0 0.00 0.00 0.00 98 1018.9
20260901092936 74 0 0.0 1.0 0.00 0.00 0.00 98 1018.8
20260901092432 74 322 0.0 1.0 0.00 0.00 0.00 98 1018.9
20260901091928 74 319 1.0 2.0 0.00 0.00 0.00 98 1018.9
20260901091427 73 309 0.0 1.0 0.00 0.00 0.00 98 1018.9
20260901090923 74 299 0.0 1.0 0.00 0.00 0.00 98 1018.9
20260901090422 73 321 0.0 1.0 0.00 0.00 0.00 98 1019.1
20260901085918 73 309 0.0 0.0 0.00 0.00 0.00 98 1019.0
20260901085414 73 310 0.0 1.0 0.00 0.00 0.00 98 1019.0
20260901084910 73 308 1.0 1.0 0.00 0.00 0.00 98 1018.9
20260901084406 73 325 0.0 0.0 0.00 0.00 0.00 97 1018.9
20260901083901 73 316 1.0 2.0 0.00 0.00 0.00 97 1019.1
20260901083356 73 333 0.0 1.0 0.00 0.00 0.00 97 1018.9
20260901082854 73 322 1.0 2.0 0.00 0.00 0.00 97 1018.7
20260901082349 73 329 0.0 0.0 0.00 0.00 0.00 98 1018.8
20260901081838 73 297 0.0 2.0 0.00 0.00 0.00 98 1018.9
20260901081334 73 323 1.0 2.0 0.00 0.00 0.00 98 1018.9
20260901080833 73 301 1.0 2.0 0.00 0.00 0.00 97 1019.0
20260901080328 73 326 0.0 1.0 0.00 0.00 0.00 97 1019.0
20260901075828 73 315 0.0 1.0 0.00 0.00 0.00 97 1019.1
20260901075323 73 332 1.0 2.0 0.00 0.00 0.00 97 1018.9
20260901074818 73 304 0.0 1.0 0.00 0.00 0.00 97 1019.1
20260901074312 74 299 0.0 1.0 0.00 0.00 0.00 97 1019.0
20260901073808 74 336 0.0 1.0 0.00 0.00 0.00 97 1018.9
20260901073303 74 343 0.0 0.0 0.00 0.00 0.00 97 1019.0
20260901072759 74 324 0.0 1.0 0.00 0.00 0.00 97 1018.9
20260901072254 74 322 0.0 1.0 0.00 0.00 0.00 97 1019.0
20260901071749 74 326 0.0 1.0 0.00 0.00 0.00 96 1019.2
20260901071248 74 0 0.0 1.0 0.00 0.00 0.00 96 1019.1
20260901070747 74 343 0.0 1.0 0.00 0.00 0.00 96 1019.3
20260901070243 74 322 0.0 1.0 0.00 0.00 0.00 96 1019.4
20260901065741 74 327 1.0 1.0 0.00 0.00 0.00 96 1019.4
20260901065237 74 352 0.0 1.0 0.00 0.00 0.00 96 1019.3
20260901064733 74 348 0.0 1.0 0.00 0.00 0.00 96 1019.5
20260901064229 74 331 0.0 1.0 0.00 0.00 0.00 96 1019.5
20260901063726 74 304 0.0 1.0 0.00 0.00 0.00 96 1019.5
20260901063222 74 343 0.0 1.0 0.00 0.00 0.00 96 1019.6
20260901062718 75 333 0.0 1.0 0.00 0.00 0.00 96 1019.4
20260901062213 75 332 0.0 1.0 0.00 0.00 0.00 96 1019.6
20260901061709 75 352 0.0 0.0 0.00 0.00 0.00 95 1019.7
20260901061209 75 336 0.0 1.0 0.00 0.00 0.00 95 1019.7
20260901060704 75 344 0.0 1.0 0.00 0.00 0.00 95 1019.6
20260901060159 75 343 0.0 1.0 0.00 0.00 0.00 94 1019.9
20260901055655 75 352 0.0 0.0 0.00 0.00 0.00 94 1019.8
20260901055151 75 309 0.0 1.0 0.00 0.00 0.00 94 1019.7
20260901054648 75 339 0.0 0.0 0.00 0.00 0.00 94 1019.7
20260901054144 75 352 0.0 1.0 0.00 0.00 0.00 94 1019.9
20260901053640 75 0 0.0 1.0 0.00 0.00 0.00 93 1019.8
20260901053135 75 346 0.0 0.0 0.00 0.00 0.00 93 1020.0
20260901052630 75 333 0.0 0.0 0.00 0.00 0.00 93 1020.0
20260901052126 76 329 0.0 0.0 0.00 0.00 0.00 92 1020.0
20260901051625 76 304 0.0 0.0 0.00 0.00 0.00 92 1019.9
20260901051124 76 283 0.0 0.0 0.00 0.00 0.00 92 1020.2
20260901050620 76 317 0.0 0.0 0.00 0.00 0.00 91 1019.9
20260901050115 76 297 0.0 1.0 0.00 0.00 0.00 91 1020.2
20260901045609 76 315 0.0 0.0 0.00 0.00 0.00 90 1020.3
20260901045104 76 309 0.0 0.0 0.00 0.00 0.00 90 1020.2
20260901044600 77 333 0.0 0.0 0.00 0.00 0.00 90 1020.3
20260901044055 77 322 0.0 0.0 0.00 0.00 0.00 89 1020.0
20260901043551 77 322 0.0 0.0 0.00 0.00 0.00 89 1020.2
20260901043046 77 293 0.0 0.0 0.00 0.00 0.00 89 1020.3
20260901042546 77 286 0.0 1.0 0.00 0.00 0.00 88 1020.2
20260901042041 77 304 0.0 1.0 0.00 0.00 0.00 88 1020.3
20260901041536 77 343 0.0 1.0 0.00 0.00 0.00 88 1020.1
20260901041031 78 333 0.0 1.0 0.00 0.00 0.00 87 1020.4
20260901040530 78 296 0.0 1.0 0.00 0.00 0.00 88 1019.9
20260901040025 77 310 1.0 2.0 0.00 0.00 0.00 88 1020.1
20260901035523 78 326 1.0 2.0 0.00 0.00 0.00 88 1020.1
20260901035021 77 317 0.0 1.0 0.00 0.00 0.00 88 1020.1
20260901034516 78 319 0.0 1.0 0.00 0.00 0.00 88 1020.1
20260901034011 78 326 0.0 1.0 0.00 0.00 0.00 87 1019.7
20260901033509 78 332 1.0 1.0 0.00 0.00 0.00 87 1020.1
20260901033004 78 333 1.0 2.0 0.00 0.00 0.00 87 1020.0
20260901032458 78 328 1.0 1.0 0.00 0.00 0.00 87 1019.9
20260901031952 78 336 0.0 1.0 0.00 0.00 0.00 86 1019.9
20260901031448 78 326 1.0 1.0 0.00 0.00 0.00 86 1019.8
20260901030948 78 333 0.0 1.0 0.00 0.00 0.00 86 1019.8
20260901030444 79 329 0.0 1.0 0.00 0.00 0.00 85 1019.9
20260901025942 79 332 0.0 2.0 0.00 0.00 0.00 85 1020.1
20260901025438 79 275 0.0 1.0 0.00 0.00 0.00 85 1019.9
20260901024937 79 307 1.0 2.0 0.00 0.00 0.00 85 1019.9
20260901024432 79 336 0.0 1.0 0.00 0.00 0.00 85 1020.0
20260901023930 79 333 0.0 1.0 0.00 0.00 0.00 84 1020.0
20260901023425 79 333 0.0 1.0 0.00 0.00 0.00 84 1019.9
20260901022920 80 322 0.0 1.0 0.00 0.00 0.00 83 1019.8
20260901022416 80 309 0.0 1.0 0.00 0.00 0.00 83 1019.7
20260901021911 80 0 0.0 1.0 0.00 0.00 0.00 83 1020.0
20260901021407 80 326 0.0 0.0 0.00 0.00 0.00 83 1020.1
20260901020902 80 322 0.0 1.0 0.00 0.00 0.00 82 1020.1
20260901020357 80 296 1.0 2.0 0.00 0.00 0.00 82 1020.1
20260901015856 80 309 0.0 1.0 0.00 0.00 0.00 82 1020.3
20260901015353 81 310 1.0 2.0 0.00 0.00 0.00 81 1020.1
20260901014851 81 321 1.0 2.0 0.00 0.00 0.00 81 1020.4
20260901014348 81 287 2.0 2.0 0.00 0.00 0.00 81 1020.0
20260901013843 81 233 0.0 2.0 0.00 0.00 0.00 81 1020.2
20260901013339 81 315 0.0 2.0 0.00 0.00 0.00 81 1020.1
20260901012834 81 296 0.0 2.0 0.00 0.00 0.00 80 1020.1
20260901012329 81 311 2.0 2.0 0.00 0.00 0.00 80 1020.1
20260901011825 81 303 0.0 1.0 0.00 0.00 0.00 80 1019.8
20260901011320 81 92 1.0 2.0 0.00 0.00 0.00 80 1019.9
20260901010813 82 318 1.0 2.0 0.00 0.00 0.00 79 1019.9
20260901010308 82 310 0.0 2.0 0.00 0.00 0.00 79 1019.9
20260901005807 82 324 0.0 2.0 0.00 0.00 0.00 78 1019.8
20260901005306 82 76 0.0 2.0 0.00 0.00 0.00 78 1019.9
20260901004756 82 14 0.0 2.0 0.00 0.00 0.00 78 1019.7
20260901004251 83 315 2.0 2.0 0.00 0.00 0.00 78 1019.7
20260901003751 83 25 0.0 2.0 0.00 0.00 0.00 78 1019.9
20260901003245 83 327 1.0 2.0 0.00 0.00 0.00 78 1019.9
20260901002739 83 324 1.0 2.0 0.00 0.00 0.00 78 1019.8
20260901002234 83 322 1.0 2.0 0.00 0.00 0.00 78 1019.8
20260901001729 83 335 0.0 2.0 0.00 0.00 0.00 78 1019.8
20260901001224 83 317 1.0 2.0 0.00 0.00 0.00 78 1019.8
20260901000719 83 333 1.0 1.0 0.00 0.00 0.00 78 1019.8
20260901000214 83 308 0.0 1.0 0.00 0.00 0.00 78 1019.6
20260831235708 83 355 1.0 3.0 0.00 0.00 0.00 78 1019.4
20260831235204 83 343 0.0 1.0 0.00 0.00 0.00 77 1019.5
20260831234703 83 325 1.0 2.0 0.00 0.00 0.00 77 1019.6
20260831234203 84 2 1.0 2.0 0.00 0.00 0.00 77 1019.5
20260831233659 84 322 0.0 2.0 0.00 0.00 0.00 76 1019.4
20260831233154 84 333 0.0 1.0 0.00 0.00 0.00 76 1019.7
20260831232649 84 301 1.0 2.0 0.00 0.00 0.00 75 1019.7
20260831232146 84 322 0.0 1.0 0.00 0.00 0.00 75 1019.5
20260831231642 84 332 1.0 1.0 0.00 0.00 0.00 74 1019.6
20260831231138 84 326 2.0 2.0 0.00 0.00 0.00 73 1019.4
20260831230632 84 303 1.0 2.0 0.00 0.00 0.00 73 1019.4
20260831230127 85 333 1.0 2.0 0.00 0.00 0.00 73 1019.5
20260831225627 85 313 0.0 2.0 0.00 0.00 0.00 71 1019.5
20260831225122 86 292 1.0 2.0 0.00 0.00 0.00 70 1019.4
20260831224617 86 301 1.0 2.0 0.00 0.00 0.00 70 1019.3
20260831224113 86 249 0.0 2.0 0.00 0.00 0.00 69 1019.3
20260831223608 87 318 0.0 2.0 0.00 0.00 0.00 68 1019.5
20260831223104 87 310 2.0 3.0 0.00 0.00 0.00 68 1019.4
20260831222600 87 323 2.0 2.0 0.00 0.00 0.00 67 1019.3
20260831222100 87 287 1.0 2.0 0.00 0.00 0.00 66 1019.4
20260831221556 87 304 2.0 2.0 0.00 0.00 0.00 67 1019.4
20260831221050 87 18 0.0 2.0 0.00 0.00 0.00 67 1019.5
20260831220550 87 304 0.0 2.0 0.00 0.00 0.00 68 1019.6
20260831220046 87 320 1.0 2.0 0.00 0.00 0.00 67 1019.3
20260831215541 87 310 1.0 2.0 0.00 0.00 0.00 66 1019.5
20260831215037 87 333 2.0 2.0 0.00 0.00 0.00 64 1019.5
20260831214535 88 295 1.0 2.0 0.00 0.00 0.00 62 1019.3
20260831214030 87 148 0.0 3.0 0.00 0.00 0.00 62 1019.5
20260831213526 87 313 1.0 2.0 0.00 0.00 0.00 64 1019.4
20260831213021 88 324 0.0 2.0 0.00 0.00 0.00 66 1019.4
20260831212518 89 318 2.0 2.0 0.00 0.00 0.00 64 1019.3
20260831212013 89 321 1.0 2.0 0.00 0.00 0.00 61 1019.1
20260831211507 89 269 0.0 2.0 0.00 0.00 0.00 59 1019.3
20260831211006 89 355 1.0 2.0 0.00 0.00 0.00 59 1019.1
20260831210502 89 315 0.0 2.0 0.00 0.00 0.00 58 1019.5
20260831205957 89 335 3.0 4.0 0.00 0.00 0.00 59 1019.3
20260831205453 89 322 2.0 3.0 0.00 0.00 0.00 61 1019.2
20260831204949 89 310 1.0 3.0 0.00 0.00 0.00 63 1019.2
20260831204448 89 299 2.0 2.0 0.00 0.00 0.00 62 1019.3
20260831203941 90 292 1.0 3.0 0.00 0.00 0.00 60 1019.4
20260831203436 90 307 1.0 2.0 0.00 0.00 0.00 58 1019.3
20260831202934 90 304 2.0 3.0 0.00 0.00 0.00 59 1019.4
20260831202430 89 303 1.0 2.0 0.00 0.00 0.00 58 1019.2
20260831201924 89 307 2.0 3.0 0.00 0.00 0.00 61 1019.3
20260831201422 89 339 0.0 2.0 0.00 0.00 0.00 59 1019.4
20260831200918 89 6 0.0 2.0 0.00 0.00 0.00 56 1019.6
20260831200413 89 324 3.0 3.0 0.00 0.00 0.00 57 1019.7
20260831195908 90 333 0.0 1.0 0.00 0.00 0.00 57 1019.5
20260831195403 90 310 0.0 3.0 0.00 0.00 0.00 57 1019.6
20260831194859 90 69 0.0 4.0 0.00 0.00 0.00 58 1019.5
20260831194354 90 151 1.0 2.0 0.00 0.00 0.00 57 1019.4
20260831193853 90 301 0.0 2.0 0.00 0.00 0.00 55 1019.5
20260831193349 90 314 2.0 3.0 0.00 0.00 0.00 57 1019.7
20260831192844 90 313 3.0 3.0 0.00 0.00 0.00 57 1019.7
20260831192343 91 283 3.0 3.0 0.00 0.00 0.00 56 1019.5
20260831191839 90 301 2.0 4.0 0.00 0.00 0.00 57 1019.7
20260831191335 89 309 0.0 4.0 0.00 0.00 0.00 58 1019.8
20260831190831 90 302 1.0 3.0 0.00 0.00 0.00 57 1019.7
20260831190325 90 237 0.0 2.0 0.00 0.00 0.00 58 1019.7
20260831185825 90 274 1.0 3.0 0.00 0.00 0.00 58 1019.8
20260831185320 89 302 1.0 3.0 0.00 0.00 0.00 61 1020.2
20260831184819 89 28 1.0 5.0 0.00 0.00 0.00 57 1020.0
20260831184315 90 296 2.0 2.0 0.00 0.00 0.00 58 1019.9
20260831183810 91 290 2.0 4.0 0.00 0.00 0.00 58 1019.9
20260831183309 91 299 2.0 2.0 0.00 0.00 0.00 58 1020.1
20260831182809 92 295 2.0 3.0 0.00 0.00 0.00 57 1020.0
20260831182305 92 293 2.0 2.0 0.00 0.00 0.00 56 1020.1
20260831181800 92 300 2.0 3.0 0.00 0.00 0.00 57 1020.2
20260831181254 92 308 2.0 2.0 0.00 0.00 0.00 58 1020.3
20260831180749 91 265 1.0 2.0 0.00 0.00 0.00 62 1020.0
20260831180244 91 318 2.0 4.0 0.00 0.00 0.00 60 1020.3
20260831175743 89 302 1.0 2.0 0.00 0.00 0.00 65 1020.2
20260831175239 88 290 2.0 3.0 0.00 0.00 0.00 66 1020.5
20260831174735 89 290 2.0 3.0 0.00 0.00 0.00 65 1020.5
20260831174231 88 343 0.0 4.0 0.00 0.00 0.00 69 1020.3
20260831173729 89 314 1.0 2.0 0.00 0.00 0.00 66 1020.5
20260831173223 89 309 0.0 1.0 0.00 0.00 0.00 65 1020.4
20260831172719 90 8 1.0 3.0 0.00 0.00 0.00 65 1020.5
20260831172214 89 311 2.0 3.0 0.00 0.00 0.00 63 1020.5
20260831171709 89 307 1.0 3.0 0.00 0.00 0.00 65 1020.7
20260831171207 89 322 0.0 2.0 0.00 0.00 0.00 66 1020.5
20260831170702 89 305 2.0 3.0 0.00 0.00 0.00 66 1020.6
20260831170159 88 325 2.0 2.0 0.00 0.00 0.00 65 1020.6
20260831165654 88 319 1.0 2.0 0.00 0.00 0.00 70 1020.7
20260831165151 87 48 0.0 2.0 0.00 0.00 0.00 68 1020.6
20260831164646 87 333 0.0 1.0 0.00 0.00 0.00 69 1020.5
20260831164143 87 336 0.0 2.0 0.00 0.00 0.00 68 1020.6
20260831163637 87 297 0.0 2.0 0.00 0.00 0.00 70 1020.8
20260831163133 87 277 2.0 3.0 0.00 0.00 0.00 69 1021.0
20260831162632 87 289 2.0 3.0 0.00 0.00 0.00 69 1021.0
20260831162130 87 289 1.0 2.0 0.00 0.00 0.00 70 1021.0
20260831161626 87 342 0.0 2.0 0.00 0.00 0.00 70 1021.2
20260831161122 86 283 0.0 2.0 0.00 0.00 0.00 70 1021.2
20260831160620 86 304 0.0 2.0 0.00 0.00 0.00 70 1021.1
20260831160116 86 304 2.0 2.0 0.00 0.00 0.00 70 1021.0
20260831155611 86 243 0.0 1.0 0.00 0.00 0.00 71 1021.2
20260831155107 85 302 2.0 2.0 0.00 0.00 0.00 71 1021.2
20260831154603 85 290 0.0 1.0 0.00 0.00 0.00 72 1021.1
20260831154102 86 123 0.0 2.0 0.00 0.00 0.00 72 1021.2
20260831153601 85 315 0.0 2.0 0.00 0.00 0.00 73 1021.0
20260831153059 85 325 3.0 3.0 0.00 0.00 0.00 74 1021.0
20260831152554 85 183 0.0 2.0 0.00 0.00 0.00 74 1021.1
20260831152049 84 309 0.0 2.0 0.00 0.00 0.00 76 1021.1
20260831151549 84 331 2.0 2.0 0.00 0.00 0.00 76 1021.3
20260831151048 84 326 2.0 2.0 0.00 0.00 0.00 77 1021.0
20260831150538 84 100 1.0 2.0 0.00 0.00 0.00 76 1021.0
20260831150034 83 308 2.0 2.0 0.00 0.00 0.00 77 1021.0